Swan River, Manitoba

7:18 AM CDT on June 23, 2018 (GMT -0500)
Swan River

Weather History for CWEQ - October, 2017

Change the Weather History Date:

Thursday, October 12, 2017

  Actual Average Record
Temperature  
Mean Temperature 40 °F -  
Max Temperature 47 °F - - ()
Min Temperature 34 °F - - ()
Degree Days  
Heating Degree Days 24    
Moisture  
Dew Point 34 °F    
Average Humidity 69    
Maximum Humidity 87    
Minimum Humidity 52    
Precipitation  
Precipitation 0.00 in - - ()
Sea Level Pressure  
Sea Level Pressure 29.76 in    
Wind  
Wind Speed 7 mph ()    
Max Wind Speed 18 mph    
Max Gust Speed 26 mph    
T = Trace of Precipitation, MM = Missing Value Source: Averaged Metar Reports

Daily Weather History Graph

Daily Weather History Graph

Search for Another Location

Airport or City:

Astronomy

Oct. 12, 2017 Rise Set
Actual Time 8:05 AM CDT 6:56 PM CDT
Civil Twilight 7:31 AM CDT 7:30 PM CDT
Nautical Twilight 6:52 AM CDT 8:09 PM CDT
Astronomical Twilight 6:12 AM CDT 8:48 PM CDT
Moon No Moon Rise 3:43 PM CDT (10/12)
Length of Visible Light 11h 59m
Length of Day
10h 51m
Waning Gibbous, 48% of the Moon is Illuminated
Oct 12
Waning Gibbous
Oct 19
New
Oct 27
First Quarter
Nov 4
Full
Nov 10
Last Quarter

Hourly Weather History & Observations

Time (CDT) Temp. Windchill Dew Point Humidity Pressure Visibility Wind Dir Wind Speed Gust Speed Precip Events Conditions
1:00 AM 43 °F - 33 °F 56% 29.73 in - SW 4.6 mph - -  
1:00 AM 42.8 °F 40.1 °F 31.5 °F 64% 29.73 in - SW 4.6 mph - N/A   Unknown
2:00 AM 39.0 °F - 31.8 °F 75% 29.72 in - NW 2.3 mph - N/A   Unknown
3:00 AM 36.9 °F 34.3 °F 31.6 °F 81% 29.72 in - West 3.5 mph - N/A   Unknown
4:00 AM 40.6 °F 36.7 °F 31.5 °F 70% 29.72 in - WSW 5.8 mph - N/A   Unknown
7:00 AM 39 °F - 33 °F 72% 29.70 in - South 5.8 mph - -  
7:00 AM 39.0 °F 34.8 °F 33.1 °F 79% 29.70 in - South 5.8 mph - N/A   Unknown
10:00 AM 42 °F - 35 °F 67% 29.74 in - SW 9.2 mph - -  
10:00 AM 42.3 °F 36.8 °F 34.7 °F 75% 29.74 in - SW 9.2 mph - N/A   Unknown
12:00 PM 46.6 °F - 38.1 °F 72% 29.75 in - WSW 12.7 mph - N/A   Unknown
1:00 PM 46 °F - 38 °F 66% 29.75 in - SW 13.8 mph - -  
1:00 PM 46.4 °F 40.4 °F 38.3 °F 73% 29.75 in - SW 13.8 mph - N/A   Unknown
3:00 PM 44.2 °F 37.3 °F 34.3 °F 68% 29.78 in - SW 15.0 mph 23.0 mph N/A   Unknown
4:00 PM 45 °F - 33 °F 52% 29.77 in - West 12.7 mph - -  
5:00 PM 41.9 °F 34.6 °F 31.8 °F 67% 29.78 in - WSW 13.8 mph 20.7 mph N/A   Unknown
6:00 PM 43.3 °F 37.2 °F 32.0 °F 64% 29.80 in - WSW 11.5 mph 18.4 mph N/A   Unknown
7:00 PM 44 °F - 32 °F 53% 29.81 in - WSW 10.4 mph - -  
8:00 PM 43.2 °F 37.0 °F 32.9 °F 67% 29.81 in - SW 11.5 mph - N/A   Unknown
9:00 PM 39.9 °F 30.8 °F 36.3 °F 87% 29.83 in - West 18.4 mph 26.5 mph N/A   Unknown
10:00 PM 40 °F - 35 °F 76% 29.84 in - West 10.4 mph - -  
11:00 PM 40.1 °F 33.2 °F 32.9 °F 75% 29.85 in - West 11.5 mph - N/A   Unknown